Jamestown, ND

4:21 AM CDT on May 30, 2017 (GMT -0500)
Jamestown Municipal

Weather History for KJMS - March, 2013

Change the Weather History Date:

Friday, March 15, 2013

  Actual Average Record
Temperature  
Mean Temperature 11 °F 27 °F  
Max Temperature 22 °F 36 °F 72 °F (2015)
Min Temperature 0 °F 18 °F -28 °F (1897)
Degree Days  
Heating Degree Days 54 38  
Month to date heating degree days 732 618  
Since 1 July heating degree days 7479 7377  
Cooling Degree Days 0 0  
Month to date cooling degree days 0 0  
Year to date cooling degree days 0 0  
Moisture  
Dew Point 10 °F    
Average Humidity 84    
Maximum Humidity 91    
Minimum Humidity 76    
Precipitation  
Precipitation 0.08 in 0.03 in 0.84 in (1943)
Month to date precipitation 0.20 0.36  
Year to date precipitation 0.69 1.21  
Sea Level Pressure  
Sea Level Pressure 30.03 in    
Wind  
Wind Speed 15 mph (NNE)    
Max Wind Speed 22 mph    
Max Gust Speed 26 mph    
Visibility 4 miles    
Events Fog , Rain , Snow    
T = Trace of Precipitation, MM = Missing Value Source: NWS Daily Summary

Daily Weather History Graph

Daily Weather History Graph

Search for Another Location

Airport or City:

Trip Planner

Search our weather history database for the weather conditions in past years. The results will help you decide how hot, cold, wet, or windy it might be!

Date:

Astronomy

Mar. 15, 2013 Rise Set
Actual Time 7:47 AM CDT 7:40 PM CDT
Civil Twilight 7:16 AM CDT 8:11 PM CDT
Nautical Twilight 6:41 AM CDT 8:46 PM CDT
Astronomical Twilight 6:05 AM CDT 9:22 PM CDT
Moon 9:21 AM CDT (3/15) No Moon Set
Length of Visible Light 12h 54m
Length of Day
11h 53m
Waxing Crescent, 15% of the Moon is Illuminated
Mar 15
Waxing Crescent
Mar 19
First Quarter
Mar 27
Full
Apr 2
Last Quarter
Apr 10
New

Hourly Weather History & Observations

Time (CDT) Temp. Windchill Dew Point Humidity Pressure Visibility Wind Dir Wind Speed Gust Speed Precip Events Conditions
12:21 AM 21.2 °F 8.9 °F 17.6 °F 86% 30.08 in 10.0 mi NE 12.7 mph - 0.00 in   Overcast
1:11 AM 21.2 °F 8.9 °F 15.8 °F 80% 30.08 in 10.0 mi NNE 12.7 mph - N/A   Overcast
1:56 AM 21.9 °F 9.8 °F 16.0 °F 78% 30.12 in 10.0 mi NNE 12.7 mph - 0.00 in   Overcast
2:43 AM 21.2 °F 5.6 °F 17.6 °F 86% 30.04 in 10.0 mi NNE 20.7 mph - 0.00 in Rain Light Freezing Rain
2:56 AM 19.9 °F 4.8 °F 17.1 °F 89% 30.11 in 9.0 mi NNE 18.4 mph - 0.00 in   Overcast
3:16 AM 19.4 °F 4.1 °F 15.8 °F 86% 30.04 in 9.0 mi NNE 18.4 mph 23.0 mph 0.00 in Rain Light Freezing Rain
3:42 AM 19.4 °F 5.5 °F 15.8 °F 86% 30.03 in 10.0 mi NE 15.0 mph - 0.00 in   Overcast
3:56 AM 19.0 °F 5.0 °F 15.1 °F 85% 30.09 in 8.0 mi NNE 15.0 mph - 0.00 in   Overcast
4:17 AM 17.6 °F 2.7 °F 14.0 °F 86% 30.02 in 9.0 mi NNE 16.1 mph - 0.00 in Rain Light Freezing Rain
4:38 AM 17.6 °F 2.7 °F 14.0 °F 86% 30.02 in 10.0 mi NE 16.1 mph - 0.00 in   Overcast
4:56 AM 18.0 °F 3.6 °F 14.0 °F 84% 30.08 in 5.0 mi NE 15.0 mph - 0.00 in Snow Light Snow
5:08 AM 17.6 °F 2.2 °F 14.0 °F 86% 30.02 in 2.0 mi NNE 17.3 mph - 0.00 in Snow Light Snow
5:26 AM 17.6 °F 3.2 °F 12.2 °F 79% 30.03 in 1.2 mi NNE 15.0 mph - 0.00 in Snow Light Snow
5:35 AM 17.6 °F 3.2 °F 14.0 °F 86% 30.03 in 1.0 mi NNE 15.0 mph - 0.01 in Snow Light Snow
5:56 AM 17.1 °F 2.5 °F 12.9 °F 84% 30.10 in 1.2 mi NNE 15.0 mph - 0.01 in Snow Light Snow
6:25 AM 15.8 °F 2.1 °F 12.2 °F 86% 30.01 in 1.8 mi NE 12.7 mph - 0.00 in Snow Light Snow
6:31 AM 15.8 °F 1.4 °F 12.2 °F 86% 30.01 in 3.0 mi NE 13.8 mph - 0.00 in Snow Light Snow
6:42 AM 15.8 °F 0.3 °F 12.2 °F 86% 30.02 in 3.0 mi NNE 16.1 mph - 0.00 in Snow Light Snow
6:56 AM 15.1 °F -1.1 °F 10.9 °F 84% 30.09 in 6.0 mi NE 17.3 mph - 0.00 in Snow Light Snow
7:56 AM 14.0 °F -0.2 °F 10.0 °F 84% 30.10 in 10.0 mi NNE 12.7 mph - 0.00 in   Overcast
8:56 AM 14.0 °F -0.8 °F 10.0 °F 84% 30.09 in 10.0 mi NE 13.8 mph - N/A   Overcast
9:56 AM 14.0 °F -0.8 °F 10.0 °F 84% 30.09 in 10.0 mi NE 13.8 mph - 0.00 in   Overcast
10:56 AM 14.0 °F -2.0 °F 9.0 °F 80% 30.07 in 5.0 mi NE 16.1 mph - 0.00 in Snow Light Snow
11:07 AM 14.0 °F -1.4 °F 8.6 °F 79% 29.98 in 1.8 mi ENE 15.0 mph - 0.00 in Snow Light Snow
11:18 AM 14.0 °F -0.2 °F 8.6 °F 79% 29.98 in 2.5 mi NE 12.7 mph - 0.00 in Snow Light Snow
11:27 AM 14.0 °F -2.5 °F 8.6 °F 79% 29.98 in 1.0 mi ENE 17.3 mph - 0.00 in Snow Light Snow
11:37 AM 14.0 °F -1.4 °F 8.6 °F 79% 29.97 in 1.0 mi ENE 15.0 mph - 0.00 in Snow Light Snow
11:45 AM 14.0 °F -0.8 °F 10.4 °F 86% 29.97 in 0.8 mi NE 13.8 mph - 0.00 in Snow Light Snow
11:56 AM 14.0 °F -0.2 °F 9.0 °F 80% 30.04 in 0.8 mi ENE 12.7 mph - 0.01 in Snow Light Snow
12:11 PM 12.2 °F -3.1 °F 8.6 °F 85% 29.96 in 0.2 mi ENE 13.8 mph - 0.00 in Fog , Snow Heavy Snow
12:37 PM 12.2 °F -3.7 °F 8.6 °F 85% 29.94 in 0.2 mi ENE 15.0 mph - 0.01 in Fog , Snow Snow
12:56 PM 14.0 °F 0.5 °F 9.0 °F 80% 30.03 in 0.5 mi NE 11.5 mph - 0.03 in Snow Snow
1:00 PM 12.2 °F -3.1 °F 8.6 °F 85% 29.93 in 1.0 mi ENE 13.8 mph - 0.00 in Snow Light Snow
1:06 PM 14.0 °F 0.5 °F 8.6 °F 79% 29.94 in 3.0 mi ENE 11.5 mph - 0.00 in Snow Light Snow
1:14 PM 14.0 °F 2.9 °F 8.6 °F 79% 29.95 in 1.8 mi NE 8.1 mph - 0.00 in Snow Light Snow
1:28 PM 14.0 °F 0.5 °F 8.6 °F 79% 30.02 in 3.0 mi NNW 11.5 mph - 0.00 in Snow Light Snow
1:35 PM 14.0 °F 0.5 °F 8.6 °F 79% 29.99 in 2.5 mi North 11.5 mph - 0.00 in Snow Light Snow
1:39 PM 14.0 °F 0.5 °F 8.6 °F 79% 29.99 in 0.8 mi North 11.5 mph - 0.01 in Snow Light Snow
1:45 PM 14.0 °F 0.5 °F 8.6 °F 79% 29.98 in 0.2 mi NNE 11.5 mph - 0.01 in Snow Heavy Snow
1:56 PM 12.9 °F -0.2 °F 9.0 °F 84% 30.05 in 0.5 mi NNE 10.4 mph - 0.02 in Fog , Snow Snow
2:09 PM 12.2 °F -2.5 °F 8.6 °F 85% 29.93 in 0.2 mi ENE 12.7 mph - 0.00 in Snow Heavy Snow
2:16 PM 12.2 °F -1.8 °F 8.6 °F 85% 29.92 in 0.2 mi ENE 11.5 mph - 0.00 in Fog , Snow Heavy Snow
2:23 PM 12.2 °F -2.5 °F 8.6 °F 85% 29.95 in 0.2 mi NE 12.7 mph - 0.01 in Snow Heavy Snow
2:31 PM 12.2 °F -4.3 °F 8.6 °F 85% 29.99 in 0.5 mi North 16.1 mph - 0.01 in Snow Snow
2:54 PM 12.2 °F -3.7 °F 8.6 °F 85% 29.97 in 1.0 mi North 15.0 mph - 0.01 in Snow Light Snow
2:56 PM 12.9 °F -3.4 °F 8.1 °F 81% 30.06 in 1.0 mi North 16.1 mph - 0.01 in Snow Light Snow
3:05 PM 12.2 °F -4.3 °F 8.6 °F 85% 29.97 in 3.0 mi North 16.1 mph - 0.00 in Snow Light Snow
3:56 PM 12.9 °F -2.8 °F 7.0 °F 77% 30.02 in 10.0 mi NE 15.0 mph - 0.00 in   Overcast
4:30 PM 12.2 °F -4.8 °F 6.8 °F 79% 29.94 in 10.0 mi NNE 17.3 mph - N/A   Overcast
4:56 PM 12.0 °F -3.4 °F 7.0 °F 80% 30.05 in 10.0 mi NNE 13.8 mph - N/A   Overcast
5:47 PM 12.2 °F -4.3 °F 6.8 °F 79% 29.96 in 2.0 mi NNE 16.1 mph - 0.00 in Snow Light Snow
5:56 PM 10.9 °F -4.1 °F 7.0 °F 84% 30.06 in 1.5 mi NNE 12.7 mph - 0.00 in Snow Light Snow
6:56 PM 10.0 °F -8.1 °F 6.1 °F 84% 30.09 in 1.5 mi NNE 18.4 mph - 0.00 in Snow Light Snow
7:46 PM 10.4 °F -6.0 °F 5.0 °F 79% 30.01 in 2.0 mi North 15.0 mph - 0.00 in Snow Light Snow
7:56 PM 9.0 °F -7.9 °F 6.1 °F 88% 30.10 in 1.8 mi North 15.0 mph - 0.00 in Snow Light Snow
8:24 PM 8.6 °F -9.5 °F 5.0 °F 85% 30.03 in 2.5 mi North 17.3 mph - 0.00 in Snow Light Snow
8:48 PM 8.6 °F -10.5 °F 3.2 °F 79% 30.04 in 1.8 mi North 19.6 mph - 0.00 in Snow Light Snow
8:56 PM 8.1 °F -9.6 °F 3.9 °F 83% 30.15 in 2.0 mi North 16.1 mph - 0.00 in Snow Light Snow
9:13 PM 8.6 °F -9.5 °F 3.2 °F 79% 30.05 in 3.0 mi North 17.3 mph - 0.00 in Snow Light Snow
9:56 PM 7.0 °F -11.0 °F 3.0 °F 84% 30.18 in 5.0 mi North 16.1 mph - 0.00 in Snow Light Snow
10:41 PM 6.8 °F -10.7 °F 1.4 °F 79% 30.08 in 9.0 mi North 15.0 mph - 0.00 in Snow Light Snow
10:56 PM 6.1 °F -12.2 °F 1.9 °F 83% 30.20 in 9.0 mi North 16.1 mph - 0.00 in Snow Light Snow